Armorel, AR

8:46 AM CDT on September 26, 2016 (GMT -0500)
Blytheville Municipal

Weather History for KHKA - February, 2013

Change the Weather History Date:

Tuesday, February 12, 2013

  Actual Average Record
Temperature  
Mean Temperature 42 °F -  
Max Temperature 48 °F 48 °F 77 °F (1938)
Min Temperature 35 °F 32 °F 5 °F (1981)
Degree Days  
Heating Degree Days 24    
Moisture  
Dew Point 36 °F    
Average Humidity 77    
Maximum Humidity 92    
Minimum Humidity 66    
Precipitation  
Precipitation 0.03 in - - ()
Sea Level Pressure  
Sea Level Pressure 30.03 in    
Wind  
Wind Speed 5 mph (ENE)    
Max Wind Speed 13 mph    
Max Gust Speed -    
Visibility 10 miles    
Events Rain    
Averages and records for this station are not official NWS values.
T = Trace of Precipitation, MM = Missing Value Source: NWS Daily Summary

Daily Weather History Graph

Daily Weather History Graph

Search for Another Location

Airport or City:

Trip Planner

Search our weather history database for the weather conditions in past years. The results will help you decide how hot, cold, wet, or windy it might be!

Date:

Astronomy

Feb. 12, 2013 Rise Set
Actual Time 6:49 AM CST 5:38 PM CST
Civil Twilight 6:23 AM CST 6:04 PM CST
Nautical Twilight 5:53 AM CST 6:34 PM CST
Astronomical Twilight 5:23 AM CST 7:04 PM CST
Moon 7:53 AM CST (2/12) 8:31 PM CST (2/12)
Length of Visible Light 11h 41m
Length of Day
10h 48m
Waxing Crescent, 7% of the Moon is Illuminated
Feb 12
Waxing Crescent
Feb 17
First Quarter
Feb 25
Full
Mar 4
Last Quarter
Mar 11
New

Hourly Weather History & Observations

Time (CST) Temp. Windchill Dew Point Humidity Pressure Visibility Wind Dir Wind Speed Gust Speed Precip Events Conditions
12:53 AM 42.1 °F 40.2 °F 35.1 °F 76% 30.16 in 10.0 mi South 3.5 mph - 0.01 in   Clear
1:53 AM 39.0 °F - 34.0 °F 82% 30.16 in 10.0 mi Calm Calm - N/A   Clear
2:53 AM 39.0 °F - 34.0 °F 82% 30.16 in 10.0 mi Calm Calm - N/A   Clear
3:53 AM 37.9 °F 34.4 °F 34.0 °F 86% 30.16 in 10.0 mi East 4.6 mph - N/A   Clear
4:53 AM 39.0 °F 35.7 °F 34.0 °F 82% 30.14 in 10.0 mi East 4.6 mph - N/A   Clear
5:53 AM 35.1 °F 28.6 °F 33.1 °F 92% 30.11 in 10.0 mi East 8.1 mph - N/A   Clear
6:53 AM 37.0 °F 31.0 °F 33.1 °F 86% 30.10 in 10.0 mi ENE 8.1 mph - N/A   Clear
7:53 AM 41.0 °F 38.0 °F 35.1 °F 79% 30.13 in 10.0 mi ESE 4.6 mph - N/A   Clear
8:53 AM 46.0 °F 41.9 °F 37.0 °F 71% 30.13 in 10.0 mi ENE 8.1 mph - N/A   Clear
9:53 AM 46.0 °F 40.6 °F 37.0 °F 71% 30.08 in 10.0 mi ENE 11.5 mph - N/A   Clear
10:53 AM 46.9 °F - 36.0 °F 66% 30.12 in 10.0 mi East 10.4 mph - N/A   Clear
11:53 AM 46.9 °F - 37.0 °F 68% 30.09 in 10.0 mi ENE 5.8 mph - N/A   Clear
12:53 PM 48.0 °F - 37.0 °F 66% 30.09 in 10.0 mi East 4.6 mph - N/A   Overcast
1:53 PM 48.9 °F - 37.9 °F 66% 30.02 in 10.0 mi NNE 8.1 mph - N/A   Mostly Cloudy
2:53 PM 46.9 °F - 37.9 °F 71% 30.00 in 10.0 mi East 3.5 mph - N/A   Overcast
3:53 PM 46.9 °F - 39.9 °F 77% 29.96 in 10.0 mi NE 6.9 mph - 0.00 in   Overcast
4:53 PM 46.0 °F 41.0 °F 37.9 °F 73% 29.94 in 10.0 mi NNE 10.4 mph - 0.00 in Rain Light Rain
5:53 PM 45.0 °F 41.2 °F 37.0 °F 74% 29.96 in 10.0 mi East 6.9 mph - 0.00 in   Overcast
6:53 PM 44.1 °F 39.5 °F 37.0 °F 76% 29.92 in 10.0 mi ENE 8.1 mph - N/A   Overcast
7:53 PM 44.1 °F 39.5 °F 37.0 °F 76% 29.88 in 10.0 mi ENE 8.1 mph - 0.00 in   Overcast
8:53 PM 44.1 °F 40.8 °F 36.0 °F 73% 29.87 in 10.0 mi ENE 5.8 mph - N/A   Overcast
9:53 PM 44.1 °F 40.8 °F 37.0 °F 76% 29.86 in 10.0 mi NNE 5.8 mph - N/A   Overcast
10:53 PM 43.0 °F 36.4 °F 37.0 °F 80% 29.86 in 7.0 mi NNE 12.7 mph - 0.01 in Rain Rain
11:53 PM 42.1 °F 37.1 °F 39.0 °F 89% 29.86 in 10.0 mi North 8.1 mph - 0.01 in Rain Light Rain